Regional Weather Roundup
Issued by NWS Jackson, KY

Current Version | Previous Version | Text Only | Print | Product List | Glossary On
Versions: 1 2 3 4 5 6 7 8 9 10 11 12 13 14 15 16 17 18 19 20 21 22 23 24 25 26 27 28 29 30 31 32 33 34 35 36 37 38 39 40 41 42 43 44 45 46 47 48 49 50
000
ASUS43 KJKL 280010
RWRJKL

EAST KENTUCKY HOURLY WEATHER ROUNDUP
NATIONAL WEATHER SERVICE JACKSON KY
700 PM EST FRI FEB 27 2015

NOTE: "FAIR" INDICATES FEW OR NO CLOUDS BELOW 12,000 FEET WITH
NO SIGNIFICANT WEATHER AND/OR OBSTRUCTIONS TO VISIBILITY.

* THESE REPORTS ARE NOT UNDER NWS QUALITY CONTROL AND MAY NOT
  REPORT WEATHER SUCH AS PRECIPITATION AND FOG.

KYZ079-080-083-085-087-088-110-112-115-119-120-280100
...EASTERN KENTUCKY...

CITY           SKY/WX    TMP DP  RH WIND       PRES   REMARKS
JACKSON        CLEAR     21   6  52 VRB3      30.51R
6HR MIN TEMP:  21; 6HR MAX TEMP:  27;

LONDON         CLEAR     25   5  42 N6        30.51R WCI  18
6HR MIN TEMP:  24; 6HR MAX TEMP:  29;

SOMERSET*      CLEAR     21   9  58 N6        30.57R WCI  14
MONTICELLO*    CLEAR     21   8  57 N8        30.58R WCI  11
6HR MIN TEMP:  21; 6HR MAX TEMP:  28;

MIDDLESBORO*   CLEAR     25  10  53 NW3       30.50R
6HR MIN TEMP:  24; 6HR MAX TEMP:  30;

HAZARD APT*    CLEAR     25   7  46 CALM      30.51R
BLACK MTN*       N/A     10   9  92 VRB3        N/A
PIKEVILLE APT* CLEAR     19   7  58 NE6       30.51R WCI  11
BIG SANDY*     CLEAR     20   8  58 NE6       30.53S WCI  12
6HR MIN TEMP:  20; 6HR MAX TEMP:  28;

MOREHEAD APT*  CLEAR     19   3  49 NW5       30.58F WCI  13
$$

KYZ035-036-041-042-044-050-067-078-099-280100
...CENTRAL KENTUCKY...

CITY           SKY/WX    TMP DP  RH WIND       PRES   REMARKS
MT STERLING*   CLEAR     19   9  63 CALM      30.59R
FLEMING/MASON* CLEAR     18   1  49 NE6       30.60R WCI   9
DANVILLE*      CLEAR     18   7  62 CALM      30.57R
RICHMOND*      CLEAR     18   5  57 N3        30.55S
LEXINGTON      CLEAR     19   2  47 E5        30.58R WCI  12
6HR MIN TEMP:  19; 6HR MAX TEMP:  23;

FRANKFORT      CLEAR     20   5  52 E5        30.58R WCI  13
6HR MIN TEMP:  20; 6HR MAX TEMP:  25;

$$

KYZ091>093-OHZ055-061-077-WVZ005-015-034-035-042-280100
...SOUTHERN OHIO/WEST VIRGINIA...

CITY           SKY/WX    TMP DP  RH WIND       PRES   REMARKS
COVINGTON      PTCLDY    18   2  49 N8        30.59R WCI   8
COLUMBUS       PTCLDY    14  -4  44 N9        30.61R WCI   2
DAYTON         PTCLDY    15   1  53 N5        30.60S WCI   8
WILMINGTON     CLEAR     11  -2  56 E5        30.58S WCI   3
HUNTINGTON     CLEAR     20   3  48 NE3       30.58S
CHARLESTON     PTCLDY    20   5  52 N8        30.57S WCI  10
PINEVILLE*     CLEAR     18  12  77 MISG      30.54R
BECKLEY        CLEAR     15   3  59 N6        30.43R WCI   6
BLUEFIELD      CLEAR     20   6  55 N3        30.39S
$$

VAZ002-007-008-TNZ017-027-036-066-071-280100
...SOUTHWEST VIRGINIA/EAST TENNESSEE...

CITY           SKY/WX    TMP DP  RH WIND       PRES   REMARKS
WISE*          CLEAR     19   9  63 N6        30.41R WCI  11
JONESVILLE*    CLEAR     25   9  50 CALM      30.48S
ABINGDON*      CLEAR     26  14  61 CALM      30.42S
BRISTOL        PTCLDY    27  19  72 CALM      30.45R
KNOXVILLE      CLEAR     31  14  49 N7        30.47R WCI  24
OAK RIDGE      CLEAR     31  10  41 VRB3      30.50R
CROSSVILLE     CLEAR     26   8  46 N6        30.43S WCI  19
NASHVILLE      PTCLDY    28  10  46 N9        30.55R WCI  19
$$

...KEY TO REMARKS...
VSB - VISIBILITY IN MILES
WCI - WIND CHILL INDEX
HX  - HEAT INDEX

$$



USA.gov is the U.S. government's official web portal to all federal, state and local government web resources and services.